Regional Weather Roundup
Issued by NWS Sioux Falls, SD

Home | Current Version | Previous Version | Graphics & Text | Print | Product List | Glossary On
Versions: 1 2 3 4 5 6 7 8 9 10 11 12 13 14 15 16 17 18 19 20 21 22 23 24 25 26 27 28 29 30 31 32 33 34 35 36 37 38 39 40 41 42 43 44 45 46 47 48 49 50
213
ASUS43 KFSD 180610
RWRFSD

WEATHER ROUNDUP FOR SE SOUTH DAKOTA/SW MINNESOTA/NW IOWA
NATIONAL WEATHER SERVICE SIOUX FALLS SD
1200 AM CST SUN FEB 18 2018

NOTE: "FAIR" INDICATES FEW OR NO CLOUDS BELOW 12,000 FEET WITH NO
SIGNIFICANT WEATHER AND OR OBSTRUCTIONS TO VISIBILITY.


SDZ038>040-050-052>070-180700-
SOUTHEAST SOUTH DAKOTA

CITY           SKY/WX    TMP DP  RH WIND       PRES   REMARKS
BROOKINGS      CLOUDY    21  18  88 S8        30.00R WCI  11
CHAMBERLAIN    CLOUDY    30  27  90 E18G24    29.82F WCI  18
6HR MIN TEMP:  23; 6HR MAX TEMP:  31;

HURON          CLOUDY    23  19  85 E9        29.90F WCI  13
6HR MIN TEMP:  19; 6HR MAX TEMP:  25;

MADISON        MOCLDY    19  19 100 SE6       29.97F WCI  11
MITCHELL       CLOUDY    24  21  88 SE13      29.93F WCI  12
6HR MIN TEMP:  18; 6HR MAX TEMP:  29;

SIOUX FALLS    CLOUDY    21  19  92 S3        30.01F
6HR MIN TEMP:  13; 6HR MAX TEMP:  27;

WINNER         FAIR      34  24  67 S30G44    29.74F WCI  20
YANKTON        CLOUDY    23  21  92 E5        29.98F WCI  17
$$

MNZ071-072-080-081-089-090-097-098-180700-
SOUTHWEST MINNESOTA

CITY           SKY/WX    TMP DP  RH WIND       PRES   REMARKS
FAIRMONT       CLOUDY    13  11  92 S6        30.06F WCI   4
JACKSON        CLOUDY    16  14  93 S9        30.05R WCI   4
LUVERNE        CLOUDY    10   9  92 CALM      30.03F
MARSHALL       CLOUDY    21  16  81 SW12      30.03S WCI   9
6HR MIN TEMP:  20; 6HR MAX TEMP:  31;

MONTEVIDEO     MOCLDY    16   9  73 CALM      30.01F
PIPESTONE      CLOUDY    19  18  93 S5        30.00R WCI  13
REDWOOD FALLS  CLOUDY    17  11  77 SE3       30.02F
TRACY          CLOUDY    23  20  88 SW8       30.03R WCI  14
WINDOM         CLOUDY    16   3  57 S6        30.04R WCI   7
WORTHINGTON    CLOUDY    16  15  96 S6        30.03S WCI   7
$$

IAZ001>003-012>014-020>022-031-032-NEZ013-014-SDZ071-180700-
NORTHWEST IOWA

CITY           SKY/WX    TMP DP  RH WIND       PRES   REMARKS
CHEROKEE       CLOUDY    17  17 100 CALM      30.09R
DENISON        CLEAR     25  23  93 CALM      30.10R
ESTHERVILLE    CLOUDY    15  12  88 S8        30.05F WCI   4
LE MARS        CLOUDY    18  18 100 CALM      30.06F
ORANGE CITY    CLOUDY    21  21 100 S5        30.06R WCI  15
SHELDON        CLOUDY    12  12 100 CALM      30.04S
SIOUX CITY     PTCLDY    21  20  96 E8        30.05F WCI  11
6HR MIN TEMP:  18; 6HR MAX TEMP:  33;

SPENCER        CLOUDY    13  10  88 SW3       30.06F
6HR MIN TEMP:  10; 6HR MAX TEMP:  28;

STORM LAKE     CLOUDY    21  21 100 S9        30.07R WCI  11
$$

ABBREVIATIONS USED IN REMARKS
   TC - TEMPERATURE IN CELSIUS
  WCI - WIND CHILL INDEX
   HX - HEAT INDEX
  VSB - VISIBILITY





USA.gov is the U.S. government's official web portal to all federal, state and local government web resources and services.